timestamp,surface_pressure_avg,surface_temp_avg,battery_voltage,lat,long
2023-11-28 00:09:01+00:00,341.8995,7.0,12.01,47.84626,-54.09684
2023-11-28 00:19:01+00:00,338.5446,6.88,11.93,47.84626,-54.09684
2023-11-28 00:29:01+00:00,349.0346,6.8,11.93,47.84626,-54.09684
2023-11-28 00:39:01+00:00,351.7645,6.8,11.93,47.84626,-54.09684
2023-11-28 00:49:01+00:00,345.13800000000015,6.69,11.93,47.84626,-54.09684
2023-11-28 00:59:01+00:00,342.3096,6.9,11.93,47.84626,-54.09684
2023-11-28 01:09:01+00:00,347.0996,7.0,11.93,47.84626,-54.09684
2023-11-28 01:19:00+00:00,348.9879,7.0,11.93,47.84626,-54.09684
2023-11-28 01:29:00+00:00,345.3563,6.9,11.93,47.84626,-54.09684
2023-11-28 01:39:00+00:00,338.5179,6.9,11.93,47.84626,-54.09684
2023-11-28 01:49:00+00:00,330.8513,6.98,11.93,47.84626,-54.09684
2023-11-28 01:59:00+00:00,328.2047,6.97,11.93,47.84626,-54.09684
2023-11-28 02:09:00+00:00,317.4498,7.0,11.93,47.84626,-54.09684
2023-11-28 02:19:00+00:00,297.2697,6.96,11.93,47.84626,-54.09684
2023-11-28 02:29:00+00:00,286.9265,6.9,11.93,47.84626,-54.09684
2023-11-28 02:39:00+00:00,286.143,6.8,11.93,47.84626,-54.09684
2023-11-28 02:49:00+00:00,277.5248,7.03,11.93,47.84626,-54.09684
2023-11-28 02:59:00+00:00,257.4948,6.8,11.93,47.84626,-54.09684
2023-11-28 03:09:00+00:00,246.4664,6.7,11.93,47.84626,-54.09684
2023-11-28 03:19:00+00:00,240.593,6.5,11.93,47.84626,-54.09684
2023-11-28 03:29:00+00:00,227.7598,6.4,11.93,47.84626,-54.09684
2023-11-28 03:39:00+00:00,218.4214,6.4,11.93,47.84626,-54.09684
2023-11-28 03:49:00+00:00,218.9114,6.4,11.93,47.84626,-54.09684
2023-11-28 03:59:00+00:00,208.7398,6.4,11.93,47.84626,-54.09684
2023-11-28 04:09:00+00:00,194.1882,6.4,11.93,47.84626,-54.09684
2023-11-28 04:19:00+00:00,191.2332,6.4,11.93,47.84626,-54.09684
2023-11-28 04:29:00+00:00,194.7532,6.4,11.93,47.84626,-54.09684
2023-11-28 04:39:00+00:00,192.1531,6.4,11.93,47.84626,-54.09684
2023-11-28 04:49:00+00:00,192.7731,6.38,11.93,47.84626,-54.09684
2023-11-28 04:59:00+00:00,193.9499,6.2,11.93,47.84626,-54.09684
2023-11-28 05:09:00+00:00,186.8665,6.1,11.93,47.84626,-54.09684
2023-11-28 05:19:01+00:00,184.5481,6.09,11.93,47.84626,-54.09684
2023-11-28 05:29:01+00:00,192.1881,6.07,11.93,47.84626,-54.09684
2023-11-28 05:39:01+00:00,195.2214,6.14,11.93,47.84626,-54.09684
2023-11-28 05:49:01+00:00,186.3465,6.2,11.93,47.84626,-54.09684
2023-11-28 05:59:01+00:00,187.3914,6.16,11.93,47.84626,-54.09684
2023-11-28 06:09:01+00:00,205.7398,6.1,11.93,47.84626,-54.09684
2023-11-28 06:19:00+00:00,212.4481,6.07,11.93,47.84626,-54.09684
2023-11-28 06:29:00+00:00,206.3864,6.1,11.93,47.84626,-54.09684
2023-11-28 06:39:00+00:00,207.9081,6.1,11.93,47.84626,-54.09684
2023-11-28 06:49:00+00:00,218.4897,6.16,11.93,47.84626,-54.09684
2023-11-28 06:59:00+00:00,217.1564,6.2,11.93,47.84626,-54.09684
2023-11-28 07:09:00+00:00,214.8365,6.1,11.93,47.84626,-54.09684
2023-11-28 07:19:00+00:00,223.9781,6.1,11.93,47.84626,-54.09684
2023-11-28 07:29:00+00:00,231.1464,6.1,11.93,47.84626,-54.09684
2023-11-28 07:39:00+00:00,239.9981,6.07,11.93,47.84626,-54.09684
2023-11-28 07:49:00+00:00,247.4048,6.0,11.93,47.84626,-54.09684
2023-11-28 07:59:00+00:00,253.8764,6.0,11.93,47.84626,-54.09684
2023-11-28 08:09:00+00:00,258.5164,6.0,11.93,47.84626,-54.09684
2023-11-28 08:19:01+00:00,255.5314,6.0,11.93,47.84626,-54.09684
2023-11-28 08:29:01+00:00,256.2164,5.95,11.93,47.84626,-54.09684
2023-11-28 08:39:01+00:00,270.3348,5.92,11.93,47.84626,-54.09684
2023-11-28 08:49:01+00:00,273.1564,5.9,11.93,47.84626,-54.09684
2023-11-28 08:59:01+00:00,265.1014,5.9,11.93,47.84626,-54.09684
2023-11-28 09:09:01+00:00,271.2364,5.9,11.93,47.84626,-54.09684
2023-11-28 09:19:00+00:00,282.1214,5.92,11.93,47.84626,-54.09684
2023-11-28 09:29:00+00:00,283.9197,5.9,11.93,47.84626,-54.09684
2023-11-28 09:39:00+00:00,286.678,5.9,11.93,47.84626,-54.09684
2023-11-28 09:49:00+00:00,301.858,5.9,11.93,47.84626,-54.09684
2023-11-28 09:59:00+00:00,322.3263,5.98,11.93,47.84626,-54.09684
2023-11-28 10:09:00+00:00,335.23800000000006,6.0,11.93,47.84626,-54.09684
2023-11-28 10:19:00+00:00,334.9113,5.84,11.93,47.84626,-54.09684
2023-11-28 10:29:00+00:00,341.74300000000005,5.9,11.93,47.84626,-54.09684
2023-11-28 10:39:00+00:00,351.9963,5.9,11.93,47.84626,-54.09684
2023-11-28 10:49:00+00:00,355.8662,5.87,11.93,47.84626,-54.09684
2023-11-28 10:59:00+00:00,355.4362,5.79,11.93,47.84626,-54.09684
2023-11-28 11:09:00+00:00,367.6546,5.92,11.93,47.84626,-54.09684
2023-11-28 11:19:00+00:00,376.3347,5.9,11.93,47.84626,-54.09684
2023-11-28 11:29:00+00:00,375.9713,6.06,11.93,47.84626,-54.09684
2023-11-28 11:39:00+00:00,378.1479,6.39,11.93,47.84626,-54.09684
2023-11-28 11:49:00+00:00,382.3345,6.46,11.93,47.84626,-54.09684
2023-11-28 11:59:00+00:00,387.3679,6.47,11.93,47.84626,-54.09684
2023-11-28 12:09:00+00:00,380.7012,6.4,11.93,47.84626,-54.09684
2023-11-28 12:19:00+00:00,376.7745,6.4,11.93,47.84626,-54.09684
2023-11-28 12:29:00+00:00,380.8612,6.4,11.93,47.84626,-54.09684
2023-11-28 12:39:00+00:00,390.5345,6.47,11.93,47.84626,-54.09684
2023-11-28 12:49:00+00:00,392.1046,6.51,11.93,47.84626,-54.09684
2023-11-28 12:59:00+00:00,382.3297,6.5,11.93,47.84626,-54.09684
2023-11-28 13:09:00+00:00,380.4112,6.5,11.93,47.84626,-54.09684
2023-11-28 13:19:00+00:00,385.0579,6.52,11.93,47.84626,-54.09684
2023-11-28 13:29:00+00:00,379.3347,6.59,11.93,47.84626,-54.09684
2023-11-28 13:39:00+00:00,372.7896,6.4,11.93,47.84626,-54.09684
2023-11-28 13:49:00+00:00,382.3279,6.4,11.93,47.84626,-54.09684
2023-11-28 13:59:00+00:00,383.1513,6.4,11.93,47.84626,-54.09684
2023-11-28 14:09:00+00:00,365.5413,6.2,11.93,47.84626,-54.09684
2023-11-28 14:19:00+00:00,356.4929,6.2,11.93,47.84626,-54.09684
2023-11-28 14:29:00+00:00,350.4062,6.22,11.93,47.84626,-54.09684
2023-11-28 14:39:00+00:00,335.8813,6.2,11.93,47.84626,-54.09684
2023-11-28 14:49:00+00:00,329.7847,6.19,11.93,47.84626,-54.09684
2023-11-28 14:59:00+00:00,330.6330000000001,6.2,11.93,47.84626,-54.09684
2023-11-28 15:09:00+00:00,322.3196,6.3,11.93,47.84626,-54.09684
2023-11-28 15:19:00+00:00,299.6179,6.23,11.93,47.84626,-54.09684
2023-11-28 15:29:00+00:00,285.783,6.2,11.93,47.84626,-54.09684
2023-11-28 15:39:00+00:00,279.9464,6.36,11.93,47.84626,-54.09684
2023-11-28 15:49:00+00:00,271.8864,6.48,11.93,47.84626,-54.09684
2023-11-28 15:59:00+00:00,256.5914,6.3,11.93,47.84626,-54.09684
2023-11-28 16:09:00+00:00,252.1348,6.3,11.93,47.84626,-54.09684
2023-11-28 16:19:01+00:00,245.1548,6.37,11.93,47.84626,-54.09684
2023-11-28 16:29:01+00:00,226.9231,6.3,11.93,47.84626,-54.09684
2023-11-28 16:39:01+00:00,222.2398,6.3,11.93,47.84626,-54.09684
2023-11-28 16:49:01+00:00,229.1815,6.4,11.93,47.84626,-54.09684
2023-11-28 16:59:01+00:00,218.9281,6.5,11.93,47.84626,-54.09684
2023-11-28 17:09:01+00:00,205.0431,6.4,11.93,47.84626,-54.09684
2023-11-28 17:19:00+00:00,201.1781,6.4,11.93,47.84626,-54.09684
2023-11-28 17:29:00+00:00,205.7697,6.5,11.93,47.84626,-54.09684
2023-11-28 17:39:00+00:00,204.8964,6.55,11.93,47.84626,-54.09684
2023-11-28 17:49:00+00:00,196.7098,6.5,11.93,47.84626,-54.09684
2023-11-28 17:59:00+00:00,195.5081,6.45,11.93,47.84626,-54.09684
2023-11-28 18:09:00+00:00,205.7981,6.48,11.93,47.84626,-54.09684
2023-11-28 18:19:00+00:00,201.9631,6.5,11.93,47.84626,-54.09684
2023-11-28 18:29:00+00:00,190.8365,6.42,11.93,47.84626,-54.09684
2023-11-28 18:39:00+00:00,197.5148,6.49,11.93,47.84626,-54.09684
2023-11-28 18:49:00+00:00,204.0948,6.5,11.93,47.84626,-54.09684
2023-11-28 18:59:00+00:00,193.4449,6.5,11.93,47.84626,-54.09684
2023-11-28 19:09:00+00:00,197.5298,6.5,11.93,47.84626,-54.09684
2023-11-28 19:19:01+00:00,218.7831,6.5,11.93,47.84626,-54.09684
2023-11-28 19:29:01+00:00,219.1064,6.5,11.93,47.84626,-54.09684
2023-11-28 19:39:01+00:00,218.5698,6.5,11.93,47.84626,-54.09684
2023-11-28 19:49:01+00:00,229.3331,6.5,11.93,47.84626,-54.09684
2023-11-28 19:59:01+00:00,231.4347,6.5,11.93,47.84626,-54.09684
2023-11-28 20:09:01+00:00,232.2031,6.5,11.93,47.84626,-54.09684
2023-11-28 20:19:01+00:00,244.4431,6.5,11.93,47.84626,-54.09684
2023-11-28 20:29:01+00:00,252.4114,6.56,11.93,47.84626,-54.09684
2023-11-28 20:39:01+00:00,244.6765,6.58,11.93,47.84626,-54.09684
2023-11-28 20:49:01+00:00,241.8814,6.5,11.93,47.84626,-54.09684
2023-11-28 20:59:01+00:00,249.968,6.57,11.93,47.84626,-54.09684
2023-11-28 21:09:01+00:00,255.9897,6.6,11.93,47.84626,-54.09684
2023-11-28 21:19:00+00:00,256.4181,6.66,11.93,47.84626,-54.09684
2023-11-28 21:29:00+00:00,261.0131,6.64,11.93,47.84626,-54.09684
2023-11-28 21:39:00+00:00,263.6631,6.69,11.93,47.84626,-54.09684
2023-11-28 21:49:00+00:00,262.6548,6.7,11.93,47.84626,-54.09684
2023-11-28 21:59:00+00:00,268.9781,6.7,11.93,47.84626,-54.09684
2023-11-28 22:09:00+00:00,282.968,6.7,11.93,47.84626,-54.09684
2023-11-28 22:19:00+00:00,286.1114,6.7,11.93,47.84626,-54.09684
2023-11-28 22:29:00+00:00,284.8314,6.7,11.93,47.84626,-54.09684
2023-11-28 22:39:00+00:00,294.0631,6.7,11.93,47.84626,-54.09684
2023-11-28 22:49:00+00:00,302.5647,6.7,11.93,47.84626,-54.09684
2023-11-28 22:59:00+00:00,300.5897,6.7,11.93,47.84626,-54.09684
2023-11-28 23:09:00+00:00,307.5213,6.74,11.93,47.84626,-54.09684
2023-11-28 23:19:01+00:00,316.3713,6.76,11.93,47.84626,-54.09684
2023-11-28 23:29:01+00:00,315.7963,6.77,11.93,47.84626,-54.09684
2023-11-28 23:39:01+00:00,317.5197,6.8,11.93,47.84626,-54.09684
2023-11-28 23:49:01+00:00,331.0146,6.8,11.93,47.84626,-54.09684
2023-11-28 23:59:01+00:00,333.6963,6.8,11.93,47.84626,-54.09684
